FENGYUN 1C DEB, 29820

Orbit data source: Space-Track

FENGYUN 1C DEB, 29820 is space debris in SSO originally from a launch on Mon, 10 May 1999 UTC launched from the Taiyaun Space Center, China (TSC). Fengyun 1C debris stems from the Chinese weather satellite Fengyun-1C, which was intentionally destroyed by a Chinese anti-satellite missile in 2007. This event dramatically increased the amount of space debris, with thousands of trackable fragments posing hazards to satellites and human spaceflight. The Fengyun 1C debris cloud has become a focal point in discussions about space sustainability and the need for international regulations to prevent the creation of new debris.

Loading next visibility...
Identifier
29820, 1999-025DN
Orbit
SSO
Country
Flag of CNCN / PRC
Related business
Manufacturer
Unknown
Mission
Spacecraft
Bus & Motor
Unknown
Mass
Unknown
Launch date (UTC)
1999-05-10 (27 years ago)
Launch vehicle
Unknown
Launch site
Taiyaun Space Center, China (TSC)
Object type
Payload
Rocket body
Debris
Shape & HBR
Unknown shape, 0.2 m
Radar Cross Section
Medium (>0.1 m² and <1 m²)

Expand to show TLE details & history
Last TLE update: 23 hours ago

TLE from 23 hours ago
0 FENGYUN 1C DEB
1 29820U 99025DN  26206.45895310  .00000523  00000-0  35698-3 0  9991
2 29820  98.8317 211.8069 0071556 332.3249 195.1032 14.02938533997101
Epoch: 2026-07-25T11:00Z
TLE epoch observation values (Epoch: 2026-07-25T11:00:53.547Z)
Latitude
12.59121°
Longitude
-74.60866°
Altitude
935.972 km
Speed
7.359 km/s
True Right ascension
02h 15m 08s
True Declination
12° 31' 12"
Sunlit
Object was in daylight at epoch
Visualization orbit readout
Latitude
Unknown
Longitude
Unknown
Altitude
Unknown
Speed
Unknown
Apparent Right ascension
Unknown
Apparent Declination
Unknown
Sunlit
N/A
Visualization observer readout
Local Sidereal Time
23:22:31
Azimuth
Unknown
Elevation
Unknown
Doppler factor
Unknown
Orbital elements
Apogee altitude
932.767 km
Perigee altitude
828.882 km
Semi-major axis
7,258.961 km
Eccentricity
0.00716
Inclination
98.8317°
RAAN
211.8069°
Arg. of periapsis
332.3249°
True anomaly
194.89138°
Mean anomaly
195.1032°
Eccentric anomaly
194.99711°
Mean motion
3.50939 °/min
Orbital period
102.58 mins
BSTAR
0.00035698
Loading maneuver chart data...
Computing Atmospheric mass density...

Documentation

Showing up to 5 results
|